Regional Weather Roundup
Issued by NWS

Home | Current Version | Previous Version | Text Only | Print | Product List | Glossary On
Versions: 1 2 3 4 5 6 7 8 9 10 11 12 13 14 15 16 17 18 19 20 21 22 23 24 25 26 27 28 29 30 31 32 33 34 35 36 37 38 39 40 41 42 43 44 45 46 47 48 49 50
000
ASUS44 KEWX 291302
RWRTX
SOUTH TEXAS REGIONAL WEATHER ROUNDUP
NATIONAL WEATHER SERVICE AUSTIN/SAN ANTONIO TX
800 AM CDT FRI AUG 29 2014

NOTE: "FAIR" INDICATED FEW OR NO CLOUDS BELOW 12,000 FEET WITH NO
SIGNIFICANT WEATHER AND/OR OBSTRUCTIONS TO VISIBILITY.

* - THESE STATIONS ARE NOT NWS OR FAA STATIONS...AND ARE NOT SUBJECT
    TO NWS AND FAA QUALITY CONTROL.

TXZ171-172-183>190-291400-
TEXAS HILL COUNTRY AND EDWARDS PLATEAU

CITY           SKY/WX    TMP DP  RH WIND       PRES   REMARKS
JUNCTION       NOT AVBL
*LLANO         PTCLDY    79  72  78 SE3       29.98F
BURNET         CLOUDY    74  68  81 N12       29.99R
*HORSESHOE BAY CLOUDY    76  72  88 NE5       29.96R
*KERRVILLE     PTCLDY    73  71  93 CALM      29.96R
*FREDERICKSBRG MOCLDY    74  70  87 E5        29.97R
*ROCKSPRINGS   MOCLDY    72  70  94 CALM      29.99R
*BOERNE STAGE  CLOUDY    73  70  88 CALM      29.94R
*CASTROVILLE   MOCLDY    77  73  87 E3        29.91R
HONDO            N/A    N/A N/A N/A MISG      29.92R
*UVALDE        PTCLDY    75  73  91 E7        29.91R
DEL RIO        CLEAR     79  71  76 E8        29.88R
LAUGHLIN AFB   MOCLDY    78  71  79 E7        29.90R
CARRIZO SPRGS  CLOUDY    79  72  78 E3        29.86R
$$

TXZ173-191>194-202-209-217>225-228-291400-
CENTRAL AND SOUTH CENTRAL TEXAS

CITY           SKY/WX    TMP DP  RH WIND       PRES   REMARKS
GEORGETOWN     CLOUDY    77  72  83 N12       29.97R
AUSTIN/BERGSTM CLOUDY    78  74  87 NE7       29.92R
AUSTIN/MABRY   CLOUDY    78  74  87 VRB3      29.93R
*AUSTIN/EXEC   CLOUDY    75  73  94 N8        29.94R
*LAGO VISTA    CLOUDY    76  72  86 NE7       29.96S
SAN MARCOS     CLOUDY    77  70  78 NE7       29.94R
NEW BRAUNFELS  CLOUDY    77  74  90 NE7       29.90R FOG
RANDOLPH AFB   CLOUDY    77  73  88 NE3       29.91R
PT SAN ANTONIO MOCLDY    78  74  87 E9        29.89R
SAN ANTONIO    MOCLDY    78  74  87 E6        29.91R
STINSON FIELD  CLOUDY    78  75  90 E10       29.88R
*PLEASANTON    PTCLDY    77  74  90 NE6       29.88R
*LA GRANGE     PTSUNNY   80  77  90 SE3       29.89R
*GIDDINGS      CLOUDY    76  73  88 CALM      29.94R
*GONZALES      PTSUNNY   77  76  96 E7        29.88R
$$

TXZ163>164-176>182-195>201-210>213-226-227-235-291400-
SOUTHEAST TEXAS

CITY           SKY/WX    TMP DP  RH WIND       PRES   REMARKS
COLLEGE STN    PTSUNNY   77  74  90 NE6       29.92R
*BRYAN         PTSUNNY   74  73  97 MISG      29.92S
*CALDWELL      PTSUNNY   75  73  94 CALM      29.95R FOG
*CROCKETT      PTSUNNY   79  77  94 CALM      29.96S
*BRENHAM       PTSUNNY   79  77  94 E3        29.91R
HUNTSVILLE     LGT RAIN  77  75  93 E5        29.92F
CONROE         MOSUNNY   76  75  97 CALM      29.92S
HOUSTON BUSH   PTSUNNY   79  77  94 NE7       29.90R
HOUSTON HOBBY  CLOUDY    82  77  84 CALM      29.88R HX  90
*HOUSTON SW AP CLOUDY    80  80 100 CALM      29.89R HX  91
PEARLAND       CLOUDY    82  77  84 E12       29.90R HX  90
HOUSTON HOOKS  CLOUDY    79  75  87 CALM      29.90S
ELLINGTON FLD  PTSUNNY   81  79  94 NE3       29.90R
SUGAR LAND     CLOUDY    83  77  82 E6        29.89R HX  92
*HOUSTON EXEC  CLOUDY    77  77 100 N7        29.91R
*CLEVELAND MUN CLOUDY    76  76  99 CALM      29.91F FOG
*WHARTON       PTSUNNY   77  76  95 CALM      29.90R
$$

TXZ214>216-236>238-291400-
THE UPPER TEXAS COAST

CITY           SKY/WX    TMP DP  RH WIND       PRES   REMARKS
*ORANGE        SUNNY     78  78 100 E8        29.92R
PORT ARTHUR    MOSUNNY   81  76  84 E12       29.89S
GALVESTON      PTSUNNY   83  75  77 SE10      29.88R HX  90
ANGLETON       LGT RAIN  78  76  93 N3        29.88R
*BAY CITY      PTSUNNY   81  81 100 NE5       29.88R HX  91
PALACIOS       MOSUNNY   79  74  84 NE8       29.87R
$$

TXZ229>234-239>247-291400-
TEXAS COASTAL BEND AND RIO GRANDE PLAINS

CITY           SKY/WX    TMP DP  RH WIND       PRES   REMARKS
VICTORIA       MOSUNNY   78  75  90 NE7       29.87R
*BEEVILLE      PTSUNNY   76  76 100 E5        29.86R
ROCKPORT       CLOUDY    81  76  84 E6        29.84R
*PORT ARANSAS  CLOUDY    78  76  94 SE8       29.83S
*PORT LAVACA   PTSUNNY   77  75  93 N6        29.86R
*INGLESIDE     CLOUDY    81  75  82 CALM      29.82F THUNDER
CORPUS CHRISTI LGT RAIN  77  75  93 SE7       29.83R
CORPUS NAS     LGT RAIN  78  75  90 SE10      29.83S FOG
*ROBSTOWN      LGT RAIN  78  75  91 E7        29.84R
ALICE          PTSUNNY   77  75  93 E6        29.83R
KINGSVILLE NAS NOT AVBL
COTULLA        CLEAR     78  73  84 E9        29.86R
*FAITH RANCH   CLOUDY    79  73  83 NE7       29.85S
LAREDO         PTCLDY    79  75  87 N9        29.85R
$$

TXZ248>255-291400-
DEEP SOUTH TEXAS

CITY           SKY/WX    TMP DP  RH WIND       PRES   REMARKS
BROWNSVILLE    CLOUDY    82  79  90 SE6       29.80R HX  92
PORT ISABEL    LGT RAIN  83  79  88 SE5       29.80R HX  94
*SOUTH PADRE     N/A     82  81  94 CALM      29.79R HX  95
HARLINGEN      CLOUDY    80  79  96 E5        29.78R
*HEBBRONVILLE  CLOUDY    76  73  88 E6        29.83S
MCALLEN        CLOUDY    81  77  88 E3        29.79R
*WESLACO       CLOUDY    82  76  82 CALM      29.78R
FALFURRIAS     CLOUDY    68  66  93 CALM      29.83R
EDINBURG       CLOUDY    82  75  78 CALM      29.79R
*ZAPATA        CLOUDY    77  74  91 CALM      29.80R
$$

TXZ213>215-236>238-242>244-246-247-251-254-255-291400-
CMAN STATIONS

STATION/POSITION TIME  TEMP    WIND        PRES    WAVE
                       AIR SEA DIR/SP/G            HT/PER
                 (UTC) (F)     (DEG/KT/KT) (MB)    (FT/S)
SABINE PASS      1200   81 84   60/  7/ 11 1012.2
SEA RIM ST PARK  1200   83     120/  9/ 10 1012.3
NORTH JETTY/GLS  1200   83 83  150/ 12/ 15   N/A
EAGLE POINT      1200   83 83  150/ 16/ 19 1011.6
MORGANS POINT    1200   81      60/  7/  8 1011.7
MISSION/ARANSAS  1200   80     110/  6     1011.0
PORT O`CONNOR    1200          110/ 12/ 15   N/A
PORT ARANSAS     1200   83 84  100/ 14/ 15 1010.4
MALAQUITE BEACH  1200   77 84  140/ 14/ 17 1009.2
BAFFIN BAY       1200   76 81  110/  7/ 14 1010.0
PORT ISABEL      1200   82 83     CALM     1008.9
$$

GMZ080-GMZ150>470-291400-
OFFSHORE BUOY REPORTS

STATION/POSITION TIME  TEMP    WIND        PRES    WAVE
                       AIR SEA DIR/SP/G            HT/PER
                 (UTC) (F)     (DEG/KT/KT) (MB)    (FT/S)
20 E GALVESTON   1300   83 86  140/ 21/ 25 1010.8    4/ 6
90 E PT ARANSAS  1300   80 86  100/ 10/ 14 1011.2    5/ 7
35 NE PT MANSFLD 1200   80 85  200/ 16/ 19 1008.4    4/ 6
200 E PT ISABEL  1200   85 87  130/ 12/ 14 1008.9    5/ 7
$$



USA.gov is the U.S. government's official web portal to all federal, state and local government web resources and services.